Flag for Germany Weather past 2 weeks in Papenburg, Lower Saxony, Germany

Now
46 °F

Overcast.


Feels Like: 42 °F
Forecast: 38 / 47 °F
Wind: 8 mph from West

Location: Emden-Koenigspolder

Current Time: Mar 5, 2015 at 4:00:16 PM

Latest Report: Mar 5, 2015 at 3:00 PM


Visibility: 17 mi

Pressure: 30.54 "Hg

Humidity: 74%

Dew point: 38 °F

Location of PapenburgLocation

Historic Weather in Papenburg — Graph

°F

Papenburg temperature yesterday

Maximum temperature yesterday: 44 °F (at 2:00 PM)
Minimum temperature yesterday: 36 °F (at 2:00 AM)
Average temperature yesterday: 40 °F

Past Weeks' High & Low Weather Summary

 TemperatureHumidityPressure
High49 °F (Mar 1, 1:00 PM)99% (Feb 21, 2:00 AM)30.58 "Hg (Feb 21, 2:00 AM)
Low33 °F (Feb 19, 6:00 AM)60% (Feb 18, 3:00 PM)29.18 "Hg (Feb 23, 7:00 AM)
Average40 °F84%29.79 "Hg
* Reported Feb 18 3:00 PM — Mar 5 3:00 PM, Papenburg, Weather by CustomWeather, © 2015

Note: Actual official high and low records may vary slightly from our data, if they occured in-between our weather recording intervals... More about our weather records

Advertising

Papenburg weather history for previous 24 hours

 ConditionsComfort  
Time TempWeatherWind HumidityBarometerVisibility
3:00 PM
Thu, Mar 5
46 °FOvercast.8 mph74%30.54 "Hg17 mi
2:00 PM46 °FOvercast.6 mph77%30.55 "Hg19 mi
1:00 PM44 °FOvercast.6 mph79%30.56 "Hg31 mi
12:00 PM45 °FOvercast.6 mph80%30.56 "Hg19 mi
11:00 AM45 °FOvercast.7 mph82%30.56 "Hg11 mi
9:00 AM38 °FLow clouds.5 mph97%30.55 "Hg8 mi
8:00 AM37 °FOvercast.2 mph97%30.54 "Hg8 mi
7:00 AM37 °FPassing clouds.N/A95%30.53 "Hg11 mi
6:00 AM38 °FPassing clouds.6 mph95%30.51 "Hg12 mi
5:00 AM37 °FClear.5 mph95%30.50 "Hg10 mi
3:00 AM37 °FClear.5 mph96%30.48 "Hg10 mi
2:00 AM38 °FClear.5 mph95%30.46 "Hg12 mi
1:00 AM40 °FPassing clouds.6 mph87%30.44 "Hg19 mi
12:00 AM40 °FPassing clouds.7 mph83%30.41 "Hg22 mi
11:00 PM
Wed, Mar 4
40 °FPassing clouds.7 mph83%30.38 "Hg18 mi
10:00 PM41 °FOvercast.8 mph83%30.34 "Hg17 mi
9:00 PM41 °FOvercast.10 mph78%30.29 "Hg28 mi
8:00 PM41 °FOvercast.10 mph81%30.24 "Hg28 mi
7:00 PM42 °FPassing clouds.9 mph83%30.19 "Hg22 mi
6:00 PM42 °FLow clouds.12 mph86%30.15 "Hg22 mi
5:00 PM43 °FScattered clouds.10 mph83%30.12 "Hg6 mi
4:00 PM42 °FOvercast.12 mph84%30.10 "Hg11 mi
Weather by CustomWeather, © 2015

See weather overviewHow to use our weather pages